Погода в Стрижах

Россия / Кировская область     58°27′59″N   49°15′28″E
темп.,
°C
ветер,
м/с
пор.,
м/с
влажн.,
%
обл.,
%
осадки,
мм/ч
давл.,
гПа
погр.,
м
13 апреля, вт
вт1300:000ююв2593100 0.0 103977
03:00+1юв2699100 0.0 1038225
06:00+2юв38100100 0.0 1037191
09:00+3ююв38100100 0.0 1036212
12:00+5ююв36100100 0.0 1034166
15:00+5ююв36100100 0.0 1033163
18:00+6ююз49100100 0.0 1031214
21:00+7юз5795100 0.0 1031172
14 апреля, ср
ср1400:00+6ююз379886 0.0 1030158
03:00+2ю359785 0.0 103070
06:00+4ююз3889100 0.0 1029139
09:00+9ююз3771100 0.0 1028238
12:00+15ююз475334 0.0 1027569
15:00+16ююз575044 0.0 1025791
18:00+11ю387419 0.0 1024159
21:00+8ю39877 0.0 1024153
15 апреля, чт
чт1500:00+7ююз36895 0.0 102396
03:00+6ююз37925 0.0 1022114
06:00+7юз36945 0.0 1021135
09:00+13юз357510 0.0 1020405
12:00+16з34615 0.0 1019964
15:00+17зсз345484 0.0 10181470
18:00+9с61077100 0.0 1021557
21:00+5ссв5108499 0.0 1023588
16 апреля, пт
пт1600:00+5ссв5117975 0.0 1024642
03:00+4ссв5107498 0.0 1025563
06:00+2св41170100 0.0 1027579
09:00+6св574911 0.0 1027874
12:00+9св45395 0.0 10271249
15:00+9ссв45378 0.0 10271470
18:00+8ссв354563 0.0 1028154
21:00+4ссв356222 0.0 102991
17 апреля, сб
сб1700:00+2св23696 0.0 102955
03:00+1ссв12715 0.0 103010
06:00+2ссз23673 0.0 103095
09:00+7сз35510 0.0 1029903
12:00+9сз464469 0.0 10281757
15:00+10сз6840100 0.0 10262129
18:00+8ссз595111 0.0 1025546
21:00+6ссз510685 0.1 1026581